CW3467 Weather Reports


Display with metric or nautical units.
time (UTC)temp
F
wind
direction
speed
MPH
gust
MPH
rain 1hr
in
rain 24hr
in
rain mn
in
humidity
%
barometer
mb
20260506073504 49 253 1.0 3.0 0.00 0.00 0.00 86 1012.6
20260506073004 49 270 0.0 2.0 0.00 0.00 0.00 86 1012.4
20260506072525 49 31 0.0 2.0 0.00 0.00 0.00 88 1012.4
20260506072004 49 247 0.0 2.0 0.00 0.00 0.00 88 1012.4
20260506071504 48 251 1.0 2.0 0.00 0.00 0.00 90 1012.3
20260506071004 47 257 1.0 3.0 0.00 0.00 0.00 91 1012.4
20260506070504 46 254 2.0 4.0 0.00 0.00 0.00 92 1012.4
20260506062504 43 234 0.0 1.0 0.00 0.00 0.00 100 1012.4
20260506062003 42 237 0.0 1.0 0.00 0.00 0.00 100 1012.3
20260506061504 42 238 0.0 1.0 0.00 0.00 0.00 100 1012.3
20260506061025 41 240 0.0 1.0 0.00 0.00 0.00 100 1012.2
20260506060525 41 233 0.0 1.0 0.00 0.00 0.00 100 1012.2
20260506051003 41 0 0.0 0.0 0.00 0.00 0.00 100 1012.0
20260506050503 41 0 0.0 0.0 0.00 0.00 0.00 100 1011.8
20260506045003 41 227 0.0 1.0 0.00 0.00 0.00 100 1011.8
20260506044504 41 226 0.0 1.0 0.00 0.00 0.00 100 1011.7
20260506044004 41 223 0.0 1.0 0.00 0.00 0.00 100 1011.7
20260506043504 41 221 0.0 1.0 0.00 0.00 0.00 100 1011.6
20260506043003 41 0 0.0 0.0 0.00 0.00 0.00 100 1011.7
20260506042524 41 224 0.0 1.0 0.00 0.00 0.00 97 1011.5
20260506042024 41 230 0.0 1.0 0.00 0.00 0.00 97 1011.5
20260506041503 42 231 0.0 1.0 0.00 0.00 0.00 97 1011.3
20260506041003 42 195 0.0 1.0 0.00 0.00 0.00 97 1011.6
20260506040503 42 203 0.0 1.0 0.00 0.00 0.00 97 1011.5
20260506040004 42 212 0.0 1.0 0.00 0.00 0.00 97 1011.4
20260506035503 41 223 0.0 1.0 0.00 0.00 0.00 97 1011.5
20260506035004 41 223 0.0 1.0 0.00 0.00 0.00 97 1011.3
20260506034524 42 226 0.0 1.0 0.00 0.00 0.00 97 1011.4
20260506034003 41 228 0.0 1.0 0.00 0.00 0.00 96 1011.4
20260506033503 42 237 0.0 1.0 0.00 0.00 0.00 96 1011.5
20260506033004 42 0 0.0 0.0 0.00 0.00 0.00 96 1011.4
20260506032504 43 219 0.0 1.0 0.00 0.00 0.00 96 1011.5
20260506032024 43 222 0.0 1.0 0.00 0.00 0.00 95 1011.5
20260506031503 43 223 0.0 1.0 0.00 0.00 0.00 96 1011.3
20260506031004 43 226 0.0 1.0 0.00 0.00 0.00 96 1011.4
20260506030504 43 224 0.0 1.0 0.00 0.00 0.00 96 1011.4
20260506030004 42 222 0.0 1.0 0.00 0.00 0.00 96 1011.3
20260506025503 42 225 0.0 1.0 0.00 0.00 0.00 97 1011.4
20260506025024 42 225 0.0 1.0 0.00 0.00 0.00 96 1011.3
20260506024504 43 226 0.0 1.0 0.00 0.00 0.00 96 1011.5
20260506024024 43 225 0.0 1.0 0.00 0.00 0.00 96 1011.2
20260506023503 43 226 0.0 1.0 0.00 0.00 0.00 96 1011.4
20260506023004 43 227 0.0 1.0 0.00 0.00 0.00 96 1011.4
20260506022503 43 228 0.0 1.0 0.00 0.00 0.00 96 1011.5
20260506022024 43 224 0.0 1.0 0.00 0.00 0.00 96 1011.4
20260506021503 43 224 0.0 1.0 0.00 0.00 0.00 96 1011.5
20260506021003 43 227 0.0 1.0 0.00 0.00 0.00 96 1011.4
20260506020504 43 226 0.0 1.0 0.00 0.00 0.00 95 1011.4
20260506020004 43 231 0.0 1.0 0.00 0.00 0.00 95 1011.5
20260506015503 44 240 0.0 1.0 0.00 0.00 0.00 95 1011.3
20260506015004 44 246 0.0 2.0 0.00 0.00 0.00 95 1011.3
20260506014504 44 233 0.0 2.0 0.00 0.00 0.00 93 1011.3
20260506014024 44 224 0.0 1.0 0.00 0.00 0.00 93 1011.3
20260506013524 45 225 0.0 1.0 0.00 0.00 0.00 93 1011.2
20260506013003 45 226 1.0 2.0 0.00 0.00 0.00 95 1011.3
20260506012503 44 225 1.0 2.0 0.00 0.00 0.00 95 1011.2
20260506012004 44 227 1.0 2.0 0.00 0.00 0.00 95 1011.0
20260506011524 44 231 1.0 2.0 0.00 0.00 0.00 95 1011.3
20260506011003 44 233 1.0 2.0 0.00 0.00 0.00 95 1011.2
20260506010503 44 230 0.0 2.0 0.00 0.00 0.00 95 1011.4
20260506010004 44 164 0.0 1.0 0.00 0.00 0.00 94 1011.3
20260506005504 45 196 0.0 1.0 0.00 0.00 0.00 93 1011.4
20260506005004 45 198 0.0 2.0 0.00 0.00 0.00 93 1011.3
20260506004505 45 213 0.0 2.0 0.00 0.00 0.00 93 1011.2
20260506004005 45 227 1.0 3.0 0.00 0.00 0.00 92 1011.4
20260506003526 45 226 1.0 3.0 0.00 0.00 0.00 92 1011.4
20260506003005 45 230 0.0 2.0 0.00 0.00 0.00 92 1011.5
20260506002504 45 232 1.0 2.0 0.00 0.00 0.00 92 1011.5
20260506002025 45 235 0.0 2.0 0.00 0.00 0.00 92 1011.5
20260506001504 45 241 0.0 1.0 0.00 0.00 0.00 93 1011.4
20260506001025 46 0 0.0 0.0 0.00 0.00 0.00 92 1011.4
20260506000525 46 0 0.0 0.0 0.00 0.00 0.00 92 1011.3
20260506000006 46 241 0.0 1.0 0.00 0.00 0.00 91 1011.5
20260505235504 46 241 0.0 1.0 0.00 0.00 0.00 91 1011.4
20260505235025 46 236 0.0 1.0 0.00 0.00 0.00 91 1011.5
20260505234504 46 227 0.0 2.0 0.00 0.00 0.00 91 1011.6
20260505234025 46 229 0.0 2.0 0.00 0.00 0.00 90 1011.5
20260505233504 47 231 1.0 2.0 0.00 0.00 0.00 90 1011.7
20260505233004 47 227 1.0 2.0 0.00 0.00 0.00 89 1011.7
20260505232504 47 227 0.0 1.0 0.00 0.00 0.00 90 1011.8
20260505232004 47 225 0.0 1.0 0.00 0.00 0.00 90 1011.7
20260505231504 47 228 0.0 2.0 0.00 0.00 0.00 90 1011.6
20260505231004 47 219 0.0 2.0 0.00 0.00 0.00 90 1011.8
20260505230504 48 172 1.0 2.0 0.00 0.00 0.00 89 1011.6
20260505230004 48 165 1.0 2.0 0.00 0.00 0.00 89 1011.6
20260505225525 47 208 0.0 1.0 0.00 0.00 0.00 88 1011.6
20260505225004 48 228 0.0 1.0 0.00 0.00 0.00 87 1011.5
20260505224504 48 225 1.0 2.0 0.00 0.00 0.00 87 1011.6
20260505224004 48 226 1.0 2.0 0.00 0.00 0.00 87 1011.6
20260505223504 48 229 1.0 2.0 0.00 0.00 0.00 86 1011.8
20260505223025 48 228 0.0 1.0 0.00 0.00 0.00 88 1011.6
20260505222504 48 224 0.0 1.0 0.00 0.00 0.00 88 1011.6
20260505222004 48 234 0.0 1.0 0.00 0.00 0.00 88 1011.7
20260505221525 49 241 0.0 1.0 0.00 0.00 0.00 88 1011.8
20260505221004 49 232 0.0 1.0 0.00 0.00 0.00 86 1011.7
20260505220504 49 229 0.0 1.0 0.00 0.00 0.00 86 1011.8
20260505220004 49 227 0.0 1.0 0.00 0.00 0.00 85 1011.7
20260505215505 49 231 0.0 1.0 0.00 0.00 0.00 85 1011.8
20260505215004 50 200 0.0 1.0 0.00 0.00 0.00 84 1011.6
20260505214504 50 200 0.0 1.0 0.00 0.00 0.00 84 1011.6
20260505214004 50 0 0.0 0.0 0.00 0.00 0.00 84 1011.8
20260505213504 50 231 0.0 1.0 0.00 0.00 0.00 85 1011.8
20260505213025 50 231 0.0 1.0 0.00 0.00 0.00 85 1011.8
20260505212504 50 0 0.0 0.0 0.00 0.00 0.00 84 1011.9
20260505212004 51 0 0.0 0.0 0.00 0.00 0.00 83 1012.0
20260505211504 51 237 0.0 1.0 0.00 0.00 0.00 82 1011.9
20260505211004 51 236 0.0 1.0 0.00 0.00 0.00 82 1011.8
20260505210505 51 229 1.0 1.0 0.00 0.00 0.00 82 1011.6
20260505210004 51 225 1.0 1.0 0.00 0.00 0.00 82 1011.8
20260505205504 51 226 0.0 1.0 0.00 0.00 0.00 81 1011.8
20260505205004 51 226 0.0 1.0 0.00 0.00 0.00 81 1011.8
20260505204525 52 225 0.0 1.0 0.00 0.00 0.00 81 1011.8
20260505204004 52 226 0.0 1.0 0.00 0.00 0.00 82 1011.6
20260505203504 52 226 0.0 1.0 0.00 0.00 0.00 83 1011.5
20260505203004 52 225 1.0 1.0 0.00 0.00 0.00 83 1011.4
20260505202525 52 226 1.0 1.0 0.00 0.00 0.00 83 1011.5
20260505202004 51 225 0.0 1.0 0.00 0.00 0.00 83 1011.5
20260505201504 52 221 0.0 1.0 0.00 0.00 0.00 83 1011.4
20260505201004 52 236 0.0 1.0 0.00 0.00 0.00 82 1011.4
20260505200504 52 235 0.0 1.0 0.00 0.00 0.00 81 1011.4
20260505200025 52 230 0.0 1.0 0.00 0.00 0.00 81 1011.4
20260505195505 52 225 0.0 1.0 0.00 0.00 0.00 81 1011.0
20260505195025 53 226 0.0 1.0 0.00 0.00 0.00 81 1010.8
20260505194504 53 226 0.0 1.0 0.00 0.00 0.00 78 1010.9
20260505194004 54 221 1.0 2.0 0.00 0.00 0.00 76 1010.8
20260505193504 54 220 1.0 2.0 0.00 0.00 0.00 75 1010.8
20260505193025 54 222 1.0 2.0 0.00 0.00 0.00 75 1010.6
20260505192504 54 222 1.0 2.0 0.00 0.01 0.00 76 1010.7
20260505192004 54 220 1.0 2.0 0.00 0.01 0.00 75 1010.5
20260505191504 55 220 1.0 2.0 0.00 0.01 0.00 74 1010.6
20260505191004 55 222 0.0 1.0 0.00 0.02 0.00 75 1010.5
20260505190504 55 222 0.0 1.0 0.00 0.03 0.00 74 1010.7
20260505190004 56 226 0.0 1.0 0.00 0.03 0.00 72 1010.6
20260505185504 56 229 0.0 1.0 0.00 0.05 0.00 71 1010.4
20260505185004 56 232 0.0 1.0 0.00 0.05 0.00 70 1010.6
20260505184504 57 235 0.0 1.0 0.00 0.07 0.00 70 1010.5
20260505184025 57 245 1.0 4.0 0.00 0.08 0.00 70 1010.5
20260505183504 58 246 1.0 4.0 0.00 0.09 0.00 68 1010.6
20260505183004 59 238 1.0 2.0 0.00 0.10 0.00 66 1010.4
20260505182504 60 236 0.0 2.0 0.00 0.11 0.00 68 1010.4
20260505182004 60 240 1.0 2.0 0.00 0.11 0.00 64 1010.3
20260505181504 60 238 1.0 2.0 0.00 0.11 0.00 65 1010.5
20260505181004 60 234 0.0 1.0 0.00 0.11 0.00 64 1010.3
20260505180504 62 219 0.0 1.0 0.00 0.12 0.00 60 1010.4
20260505180025 63 155 0.0 1.0 0.00 0.13 0.00 57 1010.4
20260505175504 63 242 0.0 3.0 0.00 0.13 0.00 57 1010.4
20260505175004 61 242 1.0 3.0 0.00 0.14 0.00 61 1010.2
20260505174504 62 227 0.0 1.0 0.00 0.14 0.00 63 1010.2
20260505174004 62 241 0.0 2.0 0.00 0.14 0.00 61 1010.2
20260505173504 61 238 0.0 2.0 0.00 0.14 0.00 63 1010.3
20260505173005 63 236 0.0 2.0 0.00 0.14 0.00 62 1010.1
20260505172504 62 206 0.0 2.0 0.00 0.14 0.00 59 1010.2
20260505172004 62 123 1.0 2.0 0.00 0.14 0.00 61 1010.3
20260505171504 61 35 1.0 2.0 0.00 0.14 0.00 62 1010.3
20260505171004 61 37 0.0 2.0 0.00 0.14 0.00 63 1010.3
20260505170504 61 190 0.0 3.0 0.00 0.14 0.00 65 1010.5
20260505170004 62 228 1.0 3.0 0.00 0.14 0.00 65 1010.2
20260505165504 62 236 0.0 2.0 0.00 0.14 0.00 63 1010.4
20260505165004 62 231 0.0 2.0 0.00 0.14 0.00 61 1010.4
20260505164504 63 228 1.0 4.0 0.00 0.14 0.00 56 1010.6
20260505164004 63 123 1.0 4.0 0.00 0.14 0.00 58 1010.6
20260505163504 63 64 1.0 4.0 0.00 0.14 0.00 59 1010.8
20260505163025 63 28 1.0 4.0 0.00 0.14 0.00 58 1010.5
20260505162504 64 60 1.0 4.0 0.00 0.14 0.00 59 1010.7
20260505162025 63 87 1.0 3.0 0.00 0.14 0.00 59 1010.6
20260505161504 63 272 1.0 4.0 0.00 0.14 0.00 62 1010.6
20260505161004 62 269 1.0 4.0 0.00 0.14 0.00 59 1010.7
20260505160504 62 249 1.0 3.0 0.00 0.14 0.00 56 1010.7
20260505153004 60 237 1.0 4.0 0.00 0.14 0.00 71 1010.9
20260505152504 58 239 1.0 4.0 0.00 0.14 0.00 73 1011.0
20260505152004 58 242 1.0 2.0 0.00 0.14 0.00 75 1010.9
20260505151504 57 237 0.0 2.0 0.00 0.14 0.00 80 1011.2
20260505151004 57 226 0.0 1.0 0.00 0.14 0.00 80 1011.5
20260505150504 56 239 0.0 1.0 0.00 0.14 0.00 78 1011.6
20260505140504 58 240 1.0 3.0 0.00 0.14 0.00 76 1010.8
20260505125004 65 308 2.0 10.0 0.00 0.14 0.00 57 1010.7
20260505124504 64 317 2.0 8.0 0.00 0.14 0.00 61 1010.9
20260505124025 64 28 2.0 10.0 0.00 0.14 0.00 63 1011.0
20260505123504 64 51 3.0 10.0 0.00 0.14 0.00 63 1010.7
20260505123004 63 45 3.0 9.0 0.00 0.14 0.00 63 1010.9
20260505122504 64 16 2.0 7.0 0.00 0.14 0.00 65 1011.0
20260505122005 63 32 1.0 7.0 0.00 0.14 0.00 63 1011.0
20260505121504 62 62 1.0 7.0 0.00 0.14 0.00 69 1011.2
20260505121004 61 50 2.0 9.0 0.00 0.14 0.00 73 1011.0
20260505120504 61 53 2.0 9.0 0.00 0.14 0.00 73 1010.9
20260505120025 62 53 1.0 7.0 0.00 0.14 0.00 68 1010.9
20260505115503 62 315 2.0 7.0 0.00 0.14 0.00 66 1011.0
20260505115005 63 286 2.0 8.0 0.00 0.14 0.00 64 1010.9
20260505114504 64 274 2.0 8.0 0.00 0.14 0.00 70 1011.0
20260505114005 64 279 2.0 6.0 0.00 0.14 0.00 67 1011.0
20260505113525 62 282 2.0 6.0 0.00 0.14 0.00 74 1011.2
20260505113004 62 269 1.0 3.0 0.00 0.14 0.00 75 1011.3
20260505112504 61 347 1.0 3.0 0.00 0.14 0.00 80 1011.5
20260505112004 59 353 1.0 3.0 0.00 0.14 0.00 82 1011.5
20260505111504 60 272 1.0 2.0 0.00 0.14 0.00 84 1011.6
20260505111004 61 256 1.0 2.0 0.00 0.14 0.00 79 1011.7
20260505110504 60 249 1.0 3.0 0.00 0.14 0.00 80 1011.7
20260505102004 56 261 1.0 4.0 0.00 0.14 0.00 87 1012.1
20260505101504 54 68 2.0 6.0 0.00 0.14 0.00 88 1012.3
20260505101004 54 17 2.0 6.0 0.00 0.14 0.00 89 1012.3
20260505100504 56 266 1.0 4.0 0.00 0.14 0.00 86 1012.3
20260505100004 56 307 2.0 6.0 0.00 0.14 0.00 89 1012.3
20260505095503 55 339 2.0 6.0 0.00 0.14 0.00 87 1012.6
20260505095003 55 10 1.0 6.0 0.00 0.14 0.00 89 1012.4
20260505094504 54 47 2.0 6.0 0.00 0.14 0.00 90 1012.3
20260505094004 54 55 2.0 6.0 0.00 0.14 0.00 89 1012.4
20260505093503 53 53 1.0 6.0 0.00 0.14 0.00 92 1012.7
20260505093004 52 344 1.0 4.0 0.00 0.14 0.00 89 1012.6
20260505092504 53 313 1.0 4.0 0.00 0.14 0.00 88 1012.7
20260505092025 54 41 1.0 4.0 0.00 0.14 0.00 90 1012.9
20260505091525 54 271 1.0 4.0 0.00 0.14 0.00 88 1012.9
20260505091003 54 269 1.0 4.0 0.00 0.14 0.00 89 1012.6
20260505090503 53 268 1.0 4.0 0.00 0.14 0.00 89 1012.6
20260505090004 54 271 1.0 4.0 0.00 0.14 0.00 91 1012.7
20260505085503 52 280 1.0 4.0 0.00 0.14 0.00 91 1012.7
20260505085003 52 268 1.0 6.0 0.00 0.14 0.00 93 1013.0
20260505084503 53 274 1.0 6.0 0.00 0.14 0.00 93 1012.7
20260505084004 52 268 1.0 3.0 0.00 0.14 0.00 97 1012.7
20260505083504 50 241 1.0 2.0 0.00 0.14 0.00 100 1012.6
20260505083004 49 238 1.0 2.0 0.00 0.14 0.00 100 1013.1
20260505082503 48 242 1.0 2.0 0.00 0.14 0.00 100 1013.0
20260505082004 48 256 1.0 3.0 0.00 0.14 0.00 100 1013.2
20260505081504 48 259 1.0 3.0 0.00 0.14 0.00 100 1013.2
20260505081003 48 254 1.0 3.0 0.00 0.14 0.00 100 1013.2
20260505080504 47 263 1.0 3.0 0.00 0.14 0.00 100 1013.3
20260505080004 47 258 1.0 2.0 0.00 0.14 0.00 100 1013.2
20260505075504 47 247 1.0 2.0 0.00 0.14 0.00 100 1013.2
20260505075003 47 248 1.0 2.0 0.00 0.14 0.00 100 1013.2
20260505074503 47 250 0.0 2.0 0.00 0.14 0.00 100 1013.2